Year,Month,Day,Hour,Minute,Value (Times are PST for temperature in C)
2018,10,16,00,00,6.50
2018,10,16,00,01,6.50
2018,10,16,00,02,6.50
2018,10,16,00,03,6.50
2018,10,16,00,04,6.40
2018,10,16,00,05,6.40
2018,10,16,00,06,6.40
2018,10,16,00,07,6.40
2018,10,16,00,08,6.40
2018,10,16,00,09,6.40
2018,10,16,00,10,6.40
2018,10,16,00,11,6.40
2018,10,16,00,12,6.40
2018,10,16,00,13,6.40
2018,10,16,00,14,6.30
2018,10,16,00,15,6.40
2018,10,16,00,16,6.30
2018,10,16,00,17,6.30
2018,10,16,00,18,6.30
2018,10,16,00,19,6.30
2018,10,16,00,20,6.30
2018,10,16,00,21,6.30
2018,10,16,00,22,6.30
2018,10,16,00,23,6.30
2018,10,16,00,24,6.30
2018,10,16,00,25,6.20
2018,10,16,00,26,6.20
2018,10,16,00,27,6.20
2018,10,16,00,28,6.20
2018,10,16,00,29,6.20
2018,10,16,00,30,6.10
2018,10,16,00,31,6.10
2018,10,16,00,32,6.10
2018,10,16,00,33,6.10
2018,10,16,00,34,6.10
2018,10,16,00,35,6.10
2018,10,16,00,36,6.10
2018,10,16,00,37,6.10
2018,10,16,00,38,6.10
2018,10,16,00,39,6.10
2018,10,16,00,40,6.10
2018,10,16,00,41,6.10
2018,10,16,00,42,6.00
2018,10,16,00,43,6.00
2018,10,16,00,44,6.00
2018,10,16,00,45,6.00
2018,10,16,00,46,6.00
2018,10,16,00,47,6.00
2018,10,16,00,48,6.00
2018,10,16,00,49,5.90
2018,10,16,00,50,5.90
2018,10,16,00,51,5.90
2018,10,16,00,52,5.90
2018,10,16,00,53,5.90
2018,10,16,00,54,5.90
2018,10,16,00,55,5.80
2018,10,16,00,56,5.80
2018,10,16,00,57,5.80
2018,10,16,00,58,5.80
2018,10,16,00,59,5.80
2018,10,16,01,00,5.80
2018,10,16,01,01,5.80
2018,10,16,01,02,5.80
2018,10,16,01,03,5.80
2018,10,16,01,04,5.80
2018,10,16,01,05,5.80
2018,10,16,01,06,5.80
2018,10,16,01,07,5.80
2018,10,16,01,08,5.80
2018,10,16,01,09,5.80
2018,10,16,01,10,5.70
2018,10,16,01,11,5.70
2018,10,16,01,12,5.70
2018,10,16,01,13,5.70
2018,10,16,01,14,5.70
2018,10,16,01,15,5.70
2018,10,16,01,16,5.70
2018,10,16,01,17,5.70
2018,10,16,01,18,5.70
2018,10,16,01,19,5.70
2018,10,16,01,20,5.70
2018,10,16,01,21,5.70
2018,10,16,01,22,5.70
2018,10,16,01,23,5.70
2018,10,16,01,24,5.70
2018,10,16,01,25,5.70
2018,10,16,01,26,5.70
2018,10,16,01,27,5.60
2018,10,16,01,28,5.60
2018,10,16,01,29,5.60
2018,10,16,01,30,5.60
2018,10,16,01,31,5.60
2018,10,16,01,32,5.60
2018,10,16,01,33,5.60
2018,10,16,01,34,5.60
2018,10,16,01,35,5.60
2018,10,16,01,36,5.60
2018,10,16,01,37,5.60
2018,10,16,01,38,5.60
2018,10,16,01,39,5.60
2018,10,16,01,40,5.60
2018,10,16,01,41,5.60
2018,10,16,01,42,5.60
2018,10,16,01,43,5.70
2018,10,16,01,44,5.70
2018,10,16,01,45,5.70
2018,10,16,01,46,5.70
2018,10,16,01,47,5.80
2018,10,16,01,48,5.80
2018,10,16,01,49,5.80
2018,10,16,01,50,5.80
2018,10,16,01,51,5.90
2018,10,16,01,52,5.90
2018,10,16,01,53,5.90
2018,10,16,01,54,5.90
2018,10,16,01,55,5.90
2018,10,16,01,56,6.00
2018,10,16,01,57,6.00
2018,10,16,01,58,6.00
2018,10,16,01,59,6.00
2018,10,16,02,00,6.00
2018,10,16,02,01,6.00
2018,10,16,02,02,6.00
2018,10,16,02,03,6.00
2018,10,16,02,04,6.00
2018,10,16,02,05,6.00
2018,10,16,02,06,6.00
2018,10,16,02,07,6.00
2018,10,16,02,08,6.10
2018,10,16,02,09,6.10
2018,10,16,02,10,6.10
2018,10,16,02,11,6.10
2018,10,16,02,12,6.10
2018,10,16,02,13,6.10
2018,10,16,02,14,6.10
2018,10,16,02,15,6.10
2018,10,16,02,16,6.10
2018,10,16,02,17,6.10
2018,10,16,02,18,6.20
2018,10,16,02,19,6.20
2018,10,16,02,20,6.20
2018,10,16,02,21,6.20
2018,10,16,02,22,6.20
2018,10,16,02,23,6.20
2018,10,16,02,24,6.20
2018,10,16,02,25,6.20
2018,10,16,02,26,6.20
2018,10,16,02,27,6.20
2018,10,16,02,28,6.20
2018,10,16,02,29,6.20
2018,10,16,02,30,6.20
2018,10,16,02,31,6.30
2018,10,16,02,32,6.30
2018,10,16,02,33,6.30
2018,10,16,02,34,6.30
2018,10,16,02,35,6.20
2018,10,16,02,36,6.20
2018,10,16,02,37,6.20
2018,10,16,02,38,6.20
2018,10,16,02,39,6.20
2018,10,16,02,40,6.20
2018,10,16,02,41,6.20
2018,10,16,02,42,6.20
2018,10,16,02,43,6.20
2018,10,16,02,44,6.20
2018,10,16,02,45,6.20
2018,10,16,02,46,6.20
2018,10,16,02,47,6.20
2018,10,16,02,48,6.10
2018,10,16,02,49,6.10
2018,10,16,02,50,6.10
2018,10,16,02,51,6.10
2018,10,16,02,52,6.10
2018,10,16,02,53,6.10
2018,10,16,02,54,6.10
2018,10,16,02,55,6.10
2018,10,16,02,56,6.10
2018,10,16,02,57,6.20
2018,10,16,02,58,6.20
2018,10,16,02,59,6.20
2018,10,16,03,00,6.20
2018,10,16,03,01,6.20
2018,10,16,03,02,6.20
2018,10,16,03,03,6.20
2018,10,16,03,04,6.30
2018,10,16,03,05,6.30
2018,10,16,03,06,6.30
2018,10,16,03,07,6.30
2018,10,16,03,08,6.30
2018,10,16,03,09,6.40
2018,10,16,03,10,6.40
2018,10,16,03,11,6.50
2018,10,16,03,12,6.60
2018,10,16,03,13,6.60
2018,10,16,03,14,6.60
2018,10,16,03,15,6.70
2018,10,16,03,16,6.70
2018,10,16,03,17,6.70
2018,10,16,03,18,6.70
2018,10,16,03,19,6.70
2018,10,16,03,20,6.70
2018,10,16,03,21,6.70
2018,10,16,03,22,6.70
2018,10,16,03,23,6.70
2018,10,16,03,24,6.70
2018,10,16,03,25,6.60
2018,10,16,03,26,6.60
2018,10,16,03,27,6.60
2018,10,16,03,28,6.60
2018,10,16,03,29,6.60
2018,10,16,03,30,6.60
2018,10,16,03,31,6.60
2018,10,16,03,32,6.60
2018,10,16,03,33,6.50
2018,10,16,03,34,6.50
2018,10,16,03,35,6.50
2018,10,16,03,36,6.50
2018,10,16,03,37,6.40
2018,10,16,03,38,6.40
2018,10,16,03,39,6.40
2018,10,16,03,40,6.40
2018,10,16,03,41,6.40
2018,10,16,03,42,6.30
2018,10,16,03,43,6.30
2018,10,16,03,44,6.30
2018,10,16,03,45,6.30
2018,10,16,03,46,6.30
2018,10,16,03,47,6.30
2018,10,16,03,48,6.30
2018,10,16,03,49,6.30
2018,10,16,03,50,6.30
2018,10,16,03,51,6.30
2018,10,16,03,52,6.30
2018,10,16,03,53,6.20
2018,10,16,03,54,6.20
2018,10,16,03,55,6.20
2018,10,16,03,56,6.30
2018,10,16,03,57,6.30
2018,10,16,03,58,6.30
2018,10,16,03,59,6.20
2018,10,16,04,00,6.20
2018,10,16,04,01,6.20
2018,10,16,04,02,6.20
2018,10,16,04,03,6.20
2018,10,16,04,04,6.30
2018,10,16,04,05,6.30
2018,10,16,04,06,6.30
2018,10,16,04,07,6.30
2018,10,16,04,08,6.30
2018,10,16,04,09,6.30
2018,10,16,04,10,6.30
2018,10,16,04,11,6.30
2018,10,16,04,12,6.30
2018,10,16,04,13,6.30
2018,10,16,04,14,6.30
2018,10,16,04,15,6.30
2018,10,16,04,16,6.30
2018,10,16,04,17,6.30
2018,10,16,04,18,6.30
2018,10,16,04,19,6.30
2018,10,16,04,20,6.30
2018,10,16,04,21,6.20
2018,10,16,04,22,6.20
2018,10,16,04,23,6.20
2018,10,16,04,24,6.20
2018,10,16,04,25,6.20
2018,10,16,04,26,6.20
2018,10,16,04,27,6.10
2018,10,16,04,28,6.10
2018,10,16,04,29,6.10
2018,10,16,04,30,6.10
2018,10,16,04,31,6.10
2018,10,16,04,32,6.00
2018,10,16,04,33,6.00
2018,10,16,04,34,6.00
2018,10,16,04,35,6.00
2018,10,16,04,36,5.90
2018,10,16,04,37,5.90
2018,10,16,04,38,5.90
2018,10,16,04,39,5.90
2018,10,16,04,40,5.90
2018,10,16,04,41,5.90
2018,10,16,04,42,5.90
2018,10,16,04,43,5.90
2018,10,16,04,44,5.90
2018,10,16,04,45,5.90
2018,10,16,04,46,5.90
2018,10,16,04,47,5.90
2018,10,16,04,48,5.90
2018,10,16,04,49,5.90
2018,10,16,04,50,5.90
2018,10,16,04,51,5.90
2018,10,16,04,52,5.90
2018,10,16,04,53,5.90
2018,10,16,04,54,5.90
2018,10,16,04,55,5.90
2018,10,16,04,56,5.90
2018,10,16,04,57,5.90
2018,10,16,04,58,6.00
2018,10,16,04,59,6.00
2018,10,16,05,00,6.00
2018,10,16,05,01,6.10
2018,10,16,05,02,6.10
2018,10,16,05,03,6.20
2018,10,16,05,04,6.20
2018,10,16,05,05,6.20
2018,10,16,05,06,6.20
2018,10,16,05,07,6.20
2018,10,16,05,08,6.20
2018,10,16,05,09,6.20
2018,10,16,05,10,6.20
2018,10,16,05,11,6.20
2018,10,16,05,12,6.20
2018,10,16,05,13,6.20
2018,10,16,05,14,6.20
2018,10,16,05,15,6.20
2018,10,16,05,16,6.20
2018,10,16,05,17,6.20
2018,10,16,05,18,6.20
2018,10,16,05,19,6.20
2018,10,16,05,20,6.20
2018,10,16,05,21,6.20
2018,10,16,05,22,6.20
2018,10,16,05,23,6.20
2018,10,16,05,24,6.10
2018,10,16,05,25,6.10
2018,10,16,05,26,6.10
2018,10,16,05,27,6.10
2018,10,16,05,28,6.10
2018,10,16,05,29,6.10
2018,10,16,05,30,6.10
2018,10,16,05,31,6.10
2018,10,16,05,32,6.10
2018,10,16,05,33,6.10
2018,10,16,05,34,6.10
2018,10,16,05,35,6.10
2018,10,16,05,36,6.10
2018,10,16,05,37,6.10
2018,10,16,05,38,6.10
2018,10,16,05,39,6.00
2018,10,16,05,40,6.00
2018,10,16,05,41,6.00
2018,10,16,05,42,6.00
2018,10,16,05,43,6.00
2018,10,16,05,44,6.00
2018,10,16,05,45,6.00
2018,10,16,05,46,6.00
2018,10,16,05,47,5.90
2018,10,16,05,48,5.90
2018,10,16,05,49,5.90
2018,10,16,05,50,5.90
2018,10,16,05,51,5.90
2018,10,16,05,52,5.90
2018,10,16,05,53,5.90
2018,10,16,05,54,5.90
2018,10,16,05,55,5.90
2018,10,16,05,56,5.90
2018,10,16,05,57,5.90
2018,10,16,05,58,5.90
2018,10,16,05,59,5.90
2018,10,16,06,00,5.90
2018,10,16,06,01,5.90
2018,10,16,06,02,5.90
2018,10,16,06,03,5.90
2018,10,16,06,04,5.90
2018,10,16,06,05,5.90
2018,10,16,06,06,5.90
2018,10,16,06,07,5.90
2018,10,16,06,08,5.90
2018,10,16,06,09,5.90
2018,10,16,06,10,5.80
2018,10,16,06,11,5.80
2018,10,16,06,12,5.80
2018,10,16,06,13,5.80
2018,10,16,06,14,5.80
2018,10,16,06,15,5.80
2018,10,16,06,16,5.80
2018,10,16,06,17,5.80
2018,10,16,06,18,5.80
2018,10,16,06,19,5.80
2018,10,16,06,20,5.80
2018,10,16,06,21,5.80
2018,10,16,06,22,5.80
2018,10,16,06,23,5.80
2018,10,16,06,24,5.80
2018,10,16,06,25,5.80
2018,10,16,06,26,5.80
2018,10,16,06,27,5.70
2018,10,16,06,28,5.70
2018,10,16,06,29,5.70
2018,10,16,06,30,5.70
2018,10,16,06,31,5.70
2018,10,16,06,32,5.70
2018,10,16,06,33,5.70
2018,10,16,06,34,5.70
2018,10,16,06,35,5.70
2018,10,16,06,36,5.70
2018,10,16,06,37,5.70
2018,10,16,06,38,5.70
2018,10,16,06,39,5.70
2018,10,16,06,40,5.70
2018,10,16,06,41,5.70
2018,10,16,06,42,5.70
2018,10,16,06,43,5.70
2018,10,16,06,44,5.70
2018,10,16,06,45,5.70
2018,10,16,06,46,5.70
2018,10,16,06,47,5.70
2018,10,16,06,48,5.70
2018,10,16,06,49,5.70
2018,10,16,06,50,5.70
2018,10,16,06,51,5.70
2018,10,16,06,52,5.70
2018,10,16,06,53,5.80
2018,10,16,06,54,5.80
2018,10,16,06,55,5.80
2018,10,16,06,56,5.80
2018,10,16,06,57,5.80
2018,10,16,06,58,5.80
2018,10,16,06,59,5.80
2018,10,16,07,00,5.90
2018,10,16,07,01,5.90
2018,10,16,07,02,5.90
2018,10,16,07,03,5.90
2018,10,16,07,04,5.90
2018,10,16,07,05,6.00
2018,10,16,07,06,6.00
2018,10,16,07,07,6.10
2018,10,16,07,08,6.10
2018,10,16,07,09,6.10
2018,10,16,07,10,6.10
2018,10,16,07,11,6.20
2018,10,16,07,12,6.20
2018,10,16,07,13,6.20
2018,10,16,07,14,6.20
2018,10,16,07,15,6.20
2018,10,16,07,16,6.20
2018,10,16,07,17,6.20
2018,10,16,07,18,6.30
2018,10,16,07,19,6.30
2018,10,16,07,20,6.30
2018,10,16,07,21,6.30
2018,10,16,07,22,6.30
2018,10,16,07,23,6.30
2018,10,16,07,24,6.30
2018,10,16,07,25,6.30
2018,10,16,07,26,6.30
2018,10,16,07,27,6.30
2018,10,16,07,28,6.30
2018,10,16,07,29,6.30
2018,10,16,07,30,6.30
2018,10,16,07,31,6.30
2018,10,16,07,32,6.30
2018,10,16,07,33,6.30
2018,10,16,07,34,6.30
2018,10,16,07,35,6.30
2018,10,16,07,36,6.30
2018,10,16,07,37,6.30
2018,10,16,07,38,6.30
2018,10,16,07,39,6.20
2018,10,16,07,40,6.20
2018,10,16,07,41,6.20
2018,10,16,07,42,6.20
2018,10,16,07,43,6.20
2018,10,16,07,44,6.20
2018,10,16,07,45,6.20
2018,10,16,07,46,6.20
2018,10,16,07,47,6.10
2018,10,16,07,48,6.10
2018,10,16,07,49,6.10
2018,10,16,07,50,6.10
2018,10,16,07,51,6.10
2018,10,16,07,52,6.10
2018,10,16,07,53,6.10
2018,10,16,07,54,6.00
2018,10,16,07,55,6.00
2018,10,16,07,56,6.00
2018,10,16,07,57,6.00
2018,10,16,07,58,6.00
2018,10,16,07,59,6.00
2018,10,16,08,00,6.00
2018,10,16,08,01,6.00
2018,10,16,08,02,6.00
2018,10,16,08,03,6.00
2018,10,16,08,04,6.00
2018,10,16,08,05,6.00
2018,10,16,08,06,6.00
2018,10,16,08,07,6.00
2018,10,16,08,08,6.00
2018,10,16,08,09,6.00
2018,10,16,08,10,6.00
2018,10,16,08,11,6.00
2018,10,16,08,12,6.00
2018,10,16,08,13,6.00
2018,10,16,08,14,6.00
2018,10,16,08,15,6.00
2018,10,16,08,16,6.00
2018,10,16,08,17,6.00
2018,10,16,08,18,6.00
2018,10,16,08,19,6.00
2018,10,16,08,20,6.00
2018,10,16,08,21,6.00
2018,10,16,08,22,6.00
2018,10,16,08,23,6.00
2018,10,16,08,24,6.00
2018,10,16,08,25,6.00
2018,10,16,08,26,6.10
2018,10,16,08,27,6.10
2018,10,16,08,28,6.10
2018,10,16,08,29,6.10
2018,10,16,08,30,6.10
2018,10,16,08,31,6.10
2018,10,16,08,32,6.10
2018,10,16,08,33,6.20
2018,10,16,08,34,6.20
2018,10,16,08,35,6.20
2018,10,16,08,36,6.20
2018,10,16,08,37,6.20
2018,10,16,08,38,6.30
2018,10,16,08,39,6.30
2018,10,16,08,40,6.30
2018,10,16,08,41,6.30
2018,10,16,08,42,6.30
2018,10,16,08,43,6.30
2018,10,16,08,44,6.40
2018,10,16,08,45,6.40
2018,10,16,08,46,6.40
2018,10,16,08,47,6.40
2018,10,16,08,48,6.40
2018,10,16,08,49,6.50
2018,10,16,08,50,6.50
2018,10,16,08,51,6.50
2018,10,16,08,52,6.60
2018,10,16,08,53,6.60
2018,10,16,08,54,6.60
2018,10,16,08,55,6.70
2018,10,16,08,56,6.70
2018,10,16,08,57,6.70
2018,10,16,08,58,6.70
2018,10,16,08,59,6.80
2018,10,16,09,00,6.80
2018,10,16,09,01,6.90
2018,10,16,09,02,6.90
2018,10,16,09,03,7.00
2018,10,16,09,04,7.10
2018,10,16,09,05,7.20
2018,10,16,09,06,7.30
2018,10,16,09,07,7.50
2018,10,16,09,08,7.60
2018,10,16,09,09,7.70
2018,10,16,09,10,7.80
2018,10,16,09,11,7.90
2018,10,16,09,12,8.00
2018,10,16,09,13,8.10
2018,10,16,09,14,8.20
2018,10,16,09,15,8.20
2018,10,16,09,16,8.30
2018,10,16,09,17,8.30
2018,10,16,09,18,8.40
2018,10,16,09,19,8.50
2018,10,16,09,20,8.50
2018,10,16,09,21,8.60
2018,10,16,09,22,8.60
2018,10,16,09,23,8.70
2018,10,16,09,24,8.70
2018,10,16,09,25,8.70
2018,10,16,09,26,8.80
2018,10,16,09,27,8.80
2018,10,16,09,28,8.90
2018,10,16,09,29,8.90
2018,10,16,09,30,9.00
2018,10,16,09,31,9.00
2018,10,16,09,32,9.10
2018,10,16,09,33,9.10
2018,10,16,09,34,9.10
2018,10,16,09,35,9.20
2018,10,16,09,36,9.20
2018,10,16,09,37,9.30
2018,10,16,09,38,9.30
2018,10,16,09,39,9.40
2018,10,16,09,40,9.40
2018,10,16,09,41,9.50
2018,10,16,09,42,9.60
2018,10,16,09,43,9.60
2018,10,16,09,44,9.70
2018,10,16,09,45,9.80
2018,10,16,09,46,10.00
2018,10,16,09,47,10.10
2018,10,16,09,48,10.20
2018,10,16,09,49,10.30
2018,10,16,09,50,10.40
2018,10,16,09,51,10.50
2018,10,16,09,52,10.60
2018,10,16,09,53,10.70
2018,10,16,09,54,10.70
2018,10,16,09,55,10.80
2018,10,16,09,56,10.90
2018,10,16,09,57,10.90
2018,10,16,09,58,11.00
2018,10,16,09,59,11.10
2018,10,16,10,00,11.20
2018,10,16,10,01,11.30
2018,10,16,10,02,11.40
2018,10,16,10,03,11.50
2018,10,16,10,04,11.60
2018,10,16,10,05,11.70
2018,10,16,10,06,11.80
2018,10,16,10,07,11.90
2018,10,16,10,08,12.00
2018,10,16,10,09,12.10
2018,10,16,10,10,12.20
2018,10,16,10,11,12.30
2018,10,16,10,12,12.30
2018,10,16,10,13,12.40
2018,10,16,10,14,12.50
2018,10,16,10,15,12.60
2018,10,16,10,16,12.70
2018,10,16,10,17,12.80
2018,10,16,10,18,12.90
2018,10,16,10,19,13.00
2018,10,16,10,20,13.00
2018,10,16,10,21,13.10
2018,10,16,10,22,13.20
2018,10,16,10,23,13.30
2018,10,16,10,24,13.40
2018,10,16,10,25,13.50
2018,10,16,10,26,13.60
2018,10,16,10,27,13.70
2018,10,16,10,28,13.80
2018,10,16,10,29,13.90
2018,10,16,10,30,14.00
2018,10,16,10,31,14.10
2018,10,16,10,32,14.10
2018,10,16,10,33,14.20
2018,10,16,10,34,14.20
2018,10,16,10,35,14.30
2018,10,16,10,36,14.30
2018,10,16,10,37,14.40
2018,10,16,10,38,14.50
2018,10,16,10,39,14.60
2018,10,16,10,40,14.70
2018,10,16,10,41,14.80
2018,10,16,10,42,14.80
2018,10,16,10,43,14.90
2018,10,16,10,44,15.00
2018,10,16,10,45,15.00
2018,10,16,10,46,15.10
2018,10,16,10,47,15.10
2018,10,16,10,48,15.20
2018,10,16,10,49,15.20
2018,10,16,10,50,15.30
2018,10,16,10,51,15.40
2018,10,16,10,52,15.50
2018,10,16,10,53,15.50
2018,10,16,10,54,15.60
2018,10,16,10,55,15.70
2018,10,16,10,56,15.80
2018,10,16,10,57,15.80
2018,10,16,10,58,15.90
2018,10,16,10,59,16.00
2018,10,16,11,00,16.10
2018,10,16,11,01,16.10
2018,10,16,11,02,16.20
2018,10,16,11,03,16.30
2018,10,16,11,04,16.30
2018,10,16,11,05,16.30
2018,10,16,11,06,16.40
2018,10,16,11,07,16.40
2018,10,16,11,08,16.40
2018,10,16,11,09,16.50
2018,10,16,11,10,16.50
2018,10,16,11,11,16.60
2018,10,16,11,12,16.60
2018,10,16,11,13,16.60
2018,10,16,11,14,16.60
2018,10,16,11,15,16.70
2018,10,16,11,16,16.70
2018,10,16,11,17,16.80
2018,10,16,11,18,16.80
2018,10,16,11,19,16.80
2018,10,16,11,20,16.90
2018,10,16,11,21,16.90
2018,10,16,11,22,17.00
2018,10,16,11,23,17.10
2018,10,16,11,24,17.10
2018,10,16,11,25,17.20
2018,10,16,11,26,17.20
2018,10,16,11,27,17.30
2018,10,16,11,28,17.30
2018,10,16,11,29,17.30
2018,10,16,11,30,17.30
2018,10,16,11,31,17.40
2018,10,16,11,32,17.40
2018,10,16,11,33,17.40
2018,10,16,11,34,17.50
2018,10,16,11,35,17.50
2018,10,16,11,36,17.50
2018,10,16,11,37,17.60
2018,10,16,11,38,17.60
2018,10,16,11,39,17.60
2018,10,16,11,40,17.70
2018,10,16,11,41,17.70
2018,10,16,11,42,17.70
2018,10,16,11,43,17.70
2018,10,16,11,44,17.70
2018,10,16,11,45,17.80
2018,10,16,11,46,17.80
2018,10,16,11,47,17.80
2018,10,16,11,48,17.80
2018,10,16,11,49,17.90
2018,10,16,11,50,17.90
2018,10,16,11,51,17.90
2018,10,16,11,52,17.90
2018,10,16,11,53,18.00
2018,10,16,11,54,18.10
2018,10,16,11,55,18.10
2018,10,16,11,56,18.10
2018,10,16,11,57,18.20
2018,10,16,11,58,18.20
2018,10,16,11,59,18.30
2018,10,16,12,00,18.30
2018,10,16,12,01,18.30
2018,10,16,12,02,18.40
2018,10,16,12,03,18.40
2018,10,16,12,04,18.50
2018,10,16,12,05,18.50
2018,10,16,12,06,18.60
2018,10,16,12,07,18.60
2018,10,16,12,08,18.70
2018,10,16,12,09,18.70
2018,10,16,12,10,18.80
2018,10,16,12,11,18.80
2018,10,16,12,12,18.80
2018,10,16,12,13,18.80
2018,10,16,12,14,18.90
2018,10,16,12,15,18.90
2018,10,16,12,16,18.90
2018,10,16,12,17,18.90
2018,10,16,12,18,18.90
2018,10,16,12,19,18.90
2018,10,16,12,20,18.90
2018,10,16,12,21,18.90
2018,10,16,12,22,18.90
2018,10,16,12,23,18.90
2018,10,16,12,24,18.90
2018,10,16,12,25,18.90
2018,10,16,12,26,19.00
2018,10,16,12,27,19.00
2018,10,16,12,28,19.00
2018,10,16,12,29,19.00
2018,10,16,12,30,18.90
2018,10,16,12,31,18.90
2018,10,16,12,32,18.90
2018,10,16,12,33,18.80
2018,10,16,12,34,18.80
2018,10,16,12,35,18.80
2018,10,16,12,36,18.80
2018,10,16,12,37,18.80
2018,10,16,12,38,18.90
2018,10,16,12,39,18.90
2018,10,16,12,40,18.90
2018,10,16,12,41,18.90
2018,10,16,12,42,18.90
2018,10,16,12,43,19.00
2018,10,16,12,44,19.00
2018,10,16,12,45,19.00
2018,10,16,12,46,19.10
2018,10,16,12,47,19.10
2018,10,16,12,48,19.20
2018,10,16,12,49,19.20
2018,10,16,12,50,19.20
2018,10,16,12,51,19.20
2018,10,16,12,52,19.20
2018,10,16,12,53,19.20
2018,10,16,12,54,19.20
2018,10,16,12,55,19.20
2018,10,16,12,56,19.20
2018,10,16,12,57,19.30
2018,10,16,12,58,19.30
2018,10,16,12,59,19.30
2018,10,16,13,00,19.30
2018,10,16,13,01,19.30
2018,10,16,13,02,19.40
2018,10,16,13,03,19.40
2018,10,16,13,04,19.40
2018,10,16,13,05,19.40
2018,10,16,13,06,19.40
2018,10,16,13,07,19.40
2018,10,16,13,08,19.40
2018,10,16,13,09,19.40
2018,10,16,13,10,19.40
2018,10,16,13,11,19.40
2018,10,16,13,12,19.30
2018,10,16,13,13,19.30
2018,10,16,13,14,19.30
2018,10,16,13,15,19.30
2018,10,16,13,16,19.30
2018,10,16,13,17,19.30
2018,10,16,13,18,19.30
2018,10,16,13,19,19.40
2018,10,16,13,20,19.40
2018,10,16,13,21,19.40
2018,10,16,13,22,19.40
2018,10,16,13,23,19.50
2018,10,16,13,24,19.50
2018,10,16,13,25,19.50
2018,10,16,13,26,19.50
2018,10,16,13,27,19.50
2018,10,16,13,28,19.50
2018,10,16,13,29,19.50
2018,10,16,13,30,19.50
2018,10,16,13,31,19.40
2018,10,16,13,32,19.40
2018,10,16,13,33,19.40
2018,10,16,13,34,19.40
2018,10,16,13,35,19.40
2018,10,16,13,36,19.40
2018,10,16,13,37,19.40
2018,10,16,13,38,19.40
2018,10,16,13,39,19.50
2018,10,16,13,40,19.50
2018,10,16,13,41,19.60
2018,10,16,13,42,19.60
2018,10,16,13,43,19.60
2018,10,16,13,44,19.70
2018,10,16,13,45,19.70
2018,10,16,13,46,19.70
2018,10,16,13,47,19.70
2018,10,16,13,48,19.70
2018,10,16,13,49,19.70
2018,10,16,13,50,19.70
2018,10,16,13,51,19.70
2018,10,16,13,52,19.80
2018,10,16,13,53,19.80
2018,10,16,13,54,19.90
2018,10,16,13,55,19.90
2018,10,16,13,56,20.00
2018,10,16,13,57,20.00
2018,10,16,13,58,20.10
2018,10,16,13,59,20.10
2018,10,16,14,00,20.10
2018,10,16,14,01,20.10
2018,10,16,14,02,20.10
2018,10,16,14,03,20.10
2018,10,16,14,04,20.10
2018,10,16,14,05,20.10
2018,10,16,14,06,20.10
2018,10,16,14,07,20.10
2018,10,16,14,08,20.00
2018,10,16,14,09,20.00
2018,10,16,14,10,20.00
2018,10,16,14,11,20.00
2018,10,16,14,12,20.10
2018,10,16,14,13,20.10
2018,10,16,14,14,20.10
2018,10,16,14,15,20.20
2018,10,16,14,16,20.20
2018,10,16,14,17,20.20
2018,10,16,14,18,20.20
2018,10,16,14,19,20.20
2018,10,16,14,20,20.20
2018,10,16,14,21,20.20
2018,10,16,14,22,20.20
2018,10,16,14,23,20.20
2018,10,16,14,24,20.30
2018,10,16,14,25,20.30
2018,10,16,14,26,20.20
2018,10,16,14,27,20.20
2018,10,16,14,28,20.20
2018,10,16,14,29,20.20
2018,10,16,14,30,20.20
2018,10,16,14,31,20.30
2018,10,16,14,32,20.30
2018,10,16,14,33,20.30
2018,10,16,14,34,20.30
2018,10,16,14,35,20.40
2018,10,16,14,36,20.40
2018,10,16,14,37,20.40
2018,10,16,14,38,20.40
2018,10,16,14,39,20.50
2018,10,16,14,40,20.50
2018,10,16,14,41,20.50
2018,10,16,14,42,20.50
2018,10,16,14,43,20.50
2018,10,16,14,44,20.60
2018,10,16,14,45,20.60
2018,10,16,14,46,20.60
2018,10,16,14,47,20.70
2018,10,16,14,48,20.70
2018,10,16,14,49,20.70
2018,10,16,14,50,20.70
2018,10,16,14,51,20.70
2018,10,16,14,52,20.70
2018,10,16,14,53,20.60
2018,10,16,14,54,20.60
2018,10,16,14,55,20.40
2018,10,16,14,56,20.30
2018,10,16,14,57,20.30
2018,10,16,14,58,20.20
2018,10,16,14,59,20.10
2018,10,16,15,00,20.10
2018,10,16,15,01,20.00
2018,10,16,15,02,20.00
2018,10,16,15,03,20.00
2018,10,16,15,04,20.00
2018,10,16,15,05,20.00
2018,10,16,15,06,20.10
2018,10,16,15,07,20.10
2018,10,16,15,08,20.00
2018,10,16,15,09,20.00
2018,10,16,15,10,19.90
2018,10,16,15,11,19.90
2018,10,16,15,12,19.80
2018,10,16,15,13,19.80
2018,10,16,15,14,19.80
2018,10,16,15,15,19.80
2018,10,16,15,16,19.90
2018,10,16,15,17,19.90
2018,10,16,15,18,19.90
2018,10,16,15,19,20.00
2018,10,16,15,20,20.10
2018,10,16,15,21,20.10
2018,10,16,15,22,20.20
2018,10,16,15,23,20.20
2018,10,16,15,24,20.20
2018,10,16,15,25,20.20
2018,10,16,15,26,20.20
2018,10,16,15,27,20.30
2018,10,16,15,28,20.30
2018,10,16,15,29,20.30
2018,10,16,15,30,20.30
2018,10,16,15,31,20.30
2018,10,16,15,32,20.30
2018,10,16,15,33,20.30
2018,10,16,15,34,20.30
2018,10,16,15,35,20.30
2018,10,16,15,36,20.30
2018,10,16,15,37,20.30
2018,10,16,15,38,20.30
2018,10,16,15,39,20.30
2018,10,16,15,40,20.30
2018,10,16,15,41,20.30
2018,10,16,15,42,20.30
2018,10,16,15,43,20.40
2018,10,16,15,44,20.40
2018,10,16,15,45,20.40
2018,10,16,15,46,20.40
2018,10,16,15,47,20.40
2018,10,16,15,48,20.30
2018,10,16,15,49,20.30
2018,10,16,15,50,20.30
2018,10,16,15,51,20.20
2018,10,16,15,52,20.20
2018,10,16,15,53,20.20
2018,10,16,15,54,20.20
2018,10,16,15,55,20.20
2018,10,16,15,56,20.30
2018,10,16,15,57,20.30
2018,10,16,15,58,20.30
2018,10,16,15,59,20.30
2018,10,16,16,00,20.30
2018,10,16,16,01,20.20
2018,10,16,16,02,20.30
2018,10,16,16,03,20.30
2018,10,16,16,04,20.30
2018,10,16,16,05,20.30
2018,10,16,16,06,20.40
2018,10,16,16,07,20.40
2018,10,16,16,08,20.40
2018,10,16,16,09,20.50
2018,10,16,16,10,20.50
2018,10,16,16,11,20.50
2018,10,16,16,12,20.50
2018,10,16,16,13,20.50
2018,10,16,16,14,20.50
2018,10,16,16,15,20.50
2018,10,16,16,16,20.50
2018,10,16,16,17,20.50
2018,10,16,16,18,20.50
2018,10,16,16,19,20.50
2018,10,16,16,20,20.50
2018,10,16,16,21,20.50
2018,10,16,16,22,20.50
2018,10,16,16,23,20.50
2018,10,16,16,24,20.60
2018,10,16,16,25,20.60
2018,10,16,16,26,20.60
2018,10,16,16,27,20.60
2018,10,16,16,28,20.60
2018,10,16,16,29,20.60
2018,10,16,16,30,20.60
2018,10,16,16,31,20.60
2018,10,16,16,32,20.60
2018,10,16,16,33,20.60
2018,10,16,16,34,20.60
2018,10,16,16,35,20.60
2018,10,16,16,36,20.60
2018,10,16,16,37,20.60
2018,10,16,16,38,20.50
2018,10,16,16,39,20.50
2018,10,16,16,40,20.50
2018,10,16,16,41,20.40
2018,10,16,16,42,20.40
2018,10,16,16,43,20.30
2018,10,16,16,44,20.30
2018,10,16,16,45,20.30
2018,10,16,16,46,20.30
2018,10,16,16,47,20.30
2018,10,16,16,48,20.30
2018,10,16,16,49,20.30
2018,10,16,16,50,20.30
2018,10,16,16,51,20.40
2018,10,16,16,52,20.40
2018,10,16,16,53,20.30
2018,10,16,16,54,20.30
2018,10,16,16,55,20.30
2018,10,16,16,56,20.30
2018,10,16,16,57,20.30
2018,10,16,16,58,20.20
2018,10,16,16,59,20.20
2018,10,16,17,00,20.10
2018,10,16,17,01,20.10
2018,10,16,17,02,20.00
2018,10,16,17,03,20.00
2018,10,16,17,04,19.90
2018,10,16,17,05,19.90
2018,10,16,17,06,19.90
2018,10,16,17,07,19.80
2018,10,16,17,08,19.80
2018,10,16,17,09,19.80
2018,10,16,17,10,19.70
2018,10,16,17,11,19.70
2018,10,16,17,12,19.70
2018,10,16,17,13,19.70
2018,10,16,17,14,19.70
2018,10,16,17,15,19.70
2018,10,16,17,16,19.70
2018,10,16,17,17,19.80
2018,10,16,17,18,19.80
2018,10,16,17,19,19.80
2018,10,16,17,20,19.70
2018,10,16,17,21,19.70
2018,10,16,17,22,19.70
2018,10,16,17,23,19.70
2018,10,16,17,24,19.70
2018,10,16,17,25,19.70
2018,10,16,17,26,19.70
2018,10,16,17,27,19.70
2018,10,16,17,28,19.60
2018,10,16,17,29,19.60
2018,10,16,17,30,19.60
2018,10,16,17,31,19.50
2018,10,16,17,32,19.50
2018,10,16,17,33,19.40
2018,10,16,17,34,19.30
2018,10,16,17,35,19.30
2018,10,16,17,36,19.20
2018,10,16,17,37,19.10
2018,10,16,17,38,19.00
2018,10,16,17,39,18.90
2018,10,16,17,40,18.70
2018,10,16,17,41,18.70
2018,10,16,17,42,18.50
2018,10,16,17,43,18.50
2018,10,16,17,44,18.40